WON2304 WICC-WICC

Flight info

Callsign WON2304
Flight time 1h 3m
Altitude 12000
Route PW
Aircraft AT76/M-SDFGIRY/S

Departure

Time 2026-04-23 06:24
Airport Husein Sastranegara International Airport (WICC)

Arrival

Time 2026-04-23 07:27
Airport Husein Sastranegara International Airport (WICC)
Time Latitude Longitude Altitude Speed Heading
2026-04-23 05:35 -6.90299 107.57956 2412 ft 0 kts 189°
2026-04-23 06:17 -6.90309 107.57954 2423 ft 0 kts 190°
2026-04-23 06:18 -6.90317 107.57953 2421 ft 1 kts 184°
2026-04-23 06:18 -6.90325 107.57943 2416 ft 3 kts 240°
2026-04-23 06:18 -6.90325 107.57926 2414 ft 6 kts 270°
2026-04-23 06:18 -6.90310 107.57877 2411 ft 9 kts 304°
2026-04-23 06:19 -6.90302 107.57822 2415 ft 10 kts 275°
2026-04-23 06:19 -6.90296 107.57746 2416 ft 12 kts 272°
2026-04-23 06:19 -6.90282 107.57665 2414 ft 11 kts 309°
2026-04-23 06:19 -6.90251 107.57665 2411 ft 2 kts 21°
2026-04-23 06:20 -6.90226 107.57674 2416 ft 5 kts 19°
2026-04-23 06:20 -6.90187 107.57684 2416 ft 6 kts
2026-04-23 06:20 -6.90157 107.57692 2422 ft 10 kts 26°
2026-04-23 06:20 -6.90103 107.57710 2417 ft 2 kts 328°
2026-04-23 06:21 -6.90053 107.57592 2418 ft 33 kts 287°
2026-04-23 06:21 -6.89953 107.57309 2413 ft 48 kts 292°
2026-04-23 06:21 -6.89849 107.57022 2413 ft 38 kts 286°
2026-04-23 06:21 -6.89780 107.56791 2414 ft 31 kts 288°
2026-04-23 06:22 -6.89769 107.56711 2416 ft 7 kts 249°
2026-04-23 06:22 -6.89755 107.56678 2412 ft 3 kts 352°
2026-04-23 06:22 -6.89744 107.56689 2413 ft 3 kts 56°
2026-04-23 06:22 -6.89746 107.56698 2414 ft 3 kts 109°
2026-04-23 06:23 -6.89748 107.56704 2411 ft 0 kts 109°
2026-04-23 06:24 -6.89775 107.56785 2415 ft 44 kts 111°
2026-04-23 06:24 -6.89963 107.57322 2417 ft 115 kts 107°
2026-04-23 06:24 -6.90262 107.58197 2727 ft 141 kts 107°
2026-04-23 06:24 -6.90558 107.59171 3375 ft 144 kts 100°
2026-04-23 06:25 -6.90841 107.60119 4046 ft 143 kts 107°
2026-04-23 06:25 -6.91180 107.61054 4707 ft 141 kts 108°
2026-04-23 06:25 -6.91512 107.61975 5378 ft 139 kts 109°
2026-04-23 06:25 -6.92164 107.62641 6018 ft 141 kts 165°
2026-04-23 06:26 -6.93126 107.62413 6520 ft 152 kts 223°
2026-04-23 06:26 -6.93509 107.61458 7107 ft 152 kts 278°
2026-04-23 06:26 -6.92955 107.60605 7719 ft 149 kts 331°
2026-04-23 06:26 -6.92121 107.60024 8315 ft 148 kts 301°
2026-04-23 06:27 -6.91803 107.59057 8836 ft 146 kts 294°
2026-04-23 06:27 -6.91055 107.58409 9388 ft 146 kts 338°
2026-04-23 06:27 -6.90268 107.57782 9857 ft 157 kts 298°
2026-04-23 06:27 -6.89801 107.56670 9917 ft 190 kts 294°
2026-04-23 06:28 -6.89231 107.55365 9927 ft 219 kts 294°
2026-04-23 06:28 -6.88596 107.53890 9937 ft 239 kts 294°
2026-04-23 06:28 -6.87931 107.52305 9934 ft 252 kts 293°
2026-04-23 06:28 -6.87060 107.50775 9936 ft 256 kts 312°
2026-04-23 06:29 -6.85719 107.49556 9931 ft 263 kts 323°
2026-04-23 06:29 -6.84166 107.48535 9933 ft 269 kts 329°
2026-04-23 06:29 -6.82539 107.47574 9926 ft 272 kts 330°
2026-04-23 06:29 -6.80897 107.46608 9925 ft 274 kts 329°
2026-04-23 06:30 -6.79255 107.45617 9921 ft 276 kts 328°
2026-04-23 06:30 -6.77619 107.44595 9919 ft 276 kts 328°
2026-04-23 06:30 -6.75992 107.43562 9912 ft 277 kts 327°
2026-04-23 06:30 -6.74366 107.42611 9905 ft 272 kts 339°
2026-04-23 06:31 -6.72495 107.42452 9909 ft 275 kts 10°
2026-04-23 06:31 -6.70760 107.43239 9919 ft 276 kts 31°
2026-04-23 06:31 -6.69161 107.44328 9925 ft 278 kts 35°
2026-04-23 06:31 -6.67611 107.45501 9916 ft 277 kts 38°
2026-04-23 06:32 -6.66099 107.46636 9908 ft 267 kts 27°
2026-04-23 06:32 -6.64311 107.46995 9909 ft 264 kts 355°
2026-04-23 06:32 -6.62558 107.46546 9919 ft 258 kts 342°
2026-04-23 06:32 -6.60847 107.46003 9921 ft 258 kts 343°
2026-04-23 06:33 -6.59124 107.45503 9923 ft 258 kts 345°
2026-04-23 06:33 -6.57376 107.45082 9921 ft 258 kts 347°
2026-04-23 06:33 -6.55642 107.44695 9920 ft 258 kts 347°
2026-04-23 06:33 -6.53892 107.44293 9917 ft 258 kts 347°
2026-04-23 06:34 -6.52145 107.43888 9924 ft 257 kts 347°
2026-04-23 06:34 -6.50383 107.43547 9920 ft 258 kts 349°
2026-04-23 06:34 -6.48623 107.43266 9910 ft 253 kts 356°
2026-04-23 06:34 -6.46894 107.43517 9918 ft 249 kts
2026-04-23 06:35 -6.45195 107.43287 9909 ft 249 kts 338°
2026-04-23 06:35 -6.43855 107.42216 9918 ft 251 kts 305°
2026-04-23 06:35 -6.43321 107.40559 9920 ft 254 kts 272°
2026-04-23 06:35 -6.43772 107.38859 9915 ft 256 kts 239°
2026-04-23 06:36 -6.45071 107.37656 9922 ft 259 kts 207°
2026-04-23 06:36 -6.46830 107.37329 9913 ft 260 kts 175°
2026-04-23 06:36 -6.48525 107.37908 9914 ft 258 kts 151°
2026-04-23 06:36 -6.49957 107.38950 9929 ft 257 kts 141°
2026-04-23 06:37 -6.51303 107.40138 9927 ft 258 kts 137°
2026-04-23 06:37 -6.52597 107.41388 9922 ft 259 kts 135°
2026-04-23 06:37 -6.53875 107.42664 9930 ft 259 kts 135°
2026-04-23 06:37 -6.55146 107.43952 9929 ft 259 kts 134°
2026-04-23 06:38 -6.56542 107.45065 9929 ft 255 kts 152°
2026-04-23 06:38 -6.58264 107.45401 9923 ft 256 kts 186°
2026-04-23 06:38 -6.59891 107.44743 9931 ft 255 kts 219°
2026-04-23 06:38 -6.60975 107.43352 9922 ft 253 kts 241°
2026-04-23 06:39 -6.61689 107.41746 9921 ft 250 kts 256°
2026-04-23 06:39 -6.61618 107.40023 9924 ft 250 kts 290°
2026-04-23 06:39 -6.60598 107.38628 9931 ft 251 kts 323°
2026-04-23 06:39 -6.59076 107.37773 9926 ft 252 kts 334°
2026-04-23 06:40 -6.57499 107.37061 9928 ft 253 kts 337°
2026-04-23 06:40 -6.55860 107.36413 9925 ft 253 kts 339°
2026-04-23 06:40 -6.54185 107.35903 9918 ft 249 kts 353°
2026-04-23 06:40 -6.52499 107.36221 9917 ft 251 kts 27°
2026-04-23 06:41 -6.51174 107.37357 9913 ft 252 kts 46°
2026-04-23 06:41 -6.50040 107.38714 9920 ft 253 kts 52°
2026-04-23 06:41 -6.49279 107.40281 9925 ft 253 kts 79°
2026-04-23 06:41 -6.49483 107.42023 9918 ft 255 kts 113°
2026-04-23 06:42 -6.50607 107.43385 9917 ft 256 kts 146°
2026-04-23 06:42 -6.52226 107.44063 9925 ft 256 kts 163°
2026-04-23 06:42 -6.53952 107.44531 9928 ft 257 kts 167°
2026-04-23 06:42 -6.55708 107.44903 9925 ft 258 kts 170°
2026-04-23 06:43 -6.57470 107.45027 9924 ft 254 kts 190°
2026-04-23 06:43 -6.59050 107.44271 9922 ft 254 kts 218°
2026-04-23 06:43 -6.60391 107.43105 9919 ft 255 kts 224°
2026-04-23 06:43 -6.61602 107.41812 9919 ft 252 kts 233°
2026-04-23 06:44 -6.62213 107.40195 9926 ft 251 kts 267°
2026-04-23 06:44 -6.61816 107.38503 9923 ft 252 kts 301°
2026-04-23 06:44 -6.60553 107.37316 9927 ft 252 kts 334°
2026-04-23 06:44 -6.58909 107.36781 9927 ft 253 kts 346°
2026-04-23 06:45 -6.57187 107.36402 9917 ft 254 kts 349°
2026-04-23 06:45 -6.55439 107.36104 9914 ft 254 kts 351°
2026-04-23 06:45 -6.53700 107.36074 9914 ft 251 kts 13°
2026-04-23 06:45 -6.52181 107.36917 9918 ft 251 kts 38°
2026-04-23 06:46 -6.50859 107.38078 9915 ft 253 kts 43°
2026-04-23 06:46 -6.49632 107.39347 9923 ft 251 kts 51°
2026-04-23 06:46 -6.48995 107.40964 9919 ft 254 kts 85°
2026-04-23 06:46 -6.49358 107.42689 9919 ft 256 kts 118°
2026-04-23 06:47 -6.50581 107.43938 9919 ft 257 kts 151°
2026-04-23 06:47 -6.52272 107.44482 9918 ft 256 kts 168°
2026-04-23 06:47 -6.54033 107.44795 9924 ft 257 kts 172°
2026-04-23 06:47 -6.55817 107.45006 9923 ft 258 kts 175°
2026-04-23 06:48 -6.57578 107.44922 9912 ft 254 kts 198°
2026-04-23 06:48 -6.59098 107.44028 9923 ft 254 kts 217°
2026-04-23 06:48 -6.60471 107.42899 9927 ft 255 kts 222°
2026-04-23 06:48 -6.61727 107.41644 9919 ft 252 kts 233°
2026-04-23 06:49 -6.62324 107.40040 9926 ft 252 kts 267°
2026-04-23 06:49 -6.61918 107.38327 9922 ft 252 kts 301°
2026-04-23 06:49 -6.60651 107.37141 9926 ft 253 kts 334°
2026-04-23 06:49 -6.58987 107.36641 9927 ft 253 kts 347°
2026-04-23 06:50 -6.57248 107.36317 9917 ft 254 kts 351°
2026-04-23 06:50 -6.55494 107.36081 9913 ft 255 kts 353°
2026-04-23 06:50 -6.53751 107.36089 9910 ft 251 kts 14°
2026-04-23 06:50 -6.52229 107.36943 9917 ft 252 kts 37°
2026-04-23 06:51 -6.50887 107.38093 9908 ft 254 kts 42°
2026-04-23 06:51 -6.49637 107.39346 9916 ft 252 kts 50°
2026-04-23 06:51 -6.48970 107.40956 9919 ft 255 kts 84°
2026-04-23 06:51 -6.49295 107.42673 9916 ft 257 kts 117°
2026-04-23 06:52 -6.50504 107.43964 9913 ft 257 kts 150°
2026-04-23 06:52 -6.52203 107.44481 9915 ft 255 kts 176°
2026-04-23 06:52 -6.53961 107.44361 9914 ft 252 kts 182°
2026-04-23 06:52 -6.55700 107.44590 9920 ft 253 kts 169°
2026-04-23 06:53 -6.57436 107.44977 9923 ft 257 kts 166°
2026-04-23 06:53 -6.59169 107.45427 9924 ft 258 kts 166°
2026-04-23 06:53 -6.60920 107.45855 9922 ft 260 kts 168°
2026-04-23 06:53 -6.62699 107.46227 9917 ft 261 kts 169°
2026-04-23 06:54 -6.64485 107.46572 9917 ft 261 kts 169°
2026-04-23 06:54 -6.66268 107.46918 9914 ft 260 kts 169°
2026-04-23 06:54 -6.68022 107.47247 9919 ft 259 kts 170°
2026-04-23 06:54 -6.69799 107.47578 9921 ft 259 kts 170°
2026-04-23 06:55 -6.71561 107.47635 9918 ft 254 kts 194°
2026-04-23 06:55 -6.73091 107.46761 9709 ft 262 kts 226°
2026-04-23 06:55 -6.74061 107.45329 9242 ft 232 kts 241°
2026-04-23 06:55 -6.74844 107.44035 8762 ft 207 kts 230°
2026-04-23 06:56 -6.76046 107.43396 8513 ft 189 kts 185°
2026-04-23 06:56 -6.77245 107.43700 8472 ft 171 kts 155°
2026-04-23 06:56 -6.78291 107.44197 8451 ft 160 kts 154°
2026-04-23 06:56 -6.79323 107.44723 8451 ft 180 kts 152°
2026-04-23 06:57 -6.80078 107.45154 8451 ft 198 kts 144°
2026-04-23 06:57 -6.81115 107.46153 8454 ft 216 kts 135°
2026-04-23 06:57 -6.82248 107.47226 8448 ft 231 kts 139°
2026-04-23 06:57 -6.83549 107.48260 8447 ft 243 kts 144°
2026-04-23 06:58 -6.84993 107.49183 8445 ft 249 kts 150°
2026-04-23 06:58 -6.86555 107.49979 8443 ft 253 kts 155°
2026-04-23 06:58 -6.88189 107.50658 8447 ft 253 kts 157°
2026-04-23 06:58 -6.89577 107.51721 8443 ft 251 kts 131°
2026-04-23 06:59 -6.90736 107.53046 8446 ft 253 kts 131°
2026-04-23 06:59 -6.91948 107.54336 8447 ft 255 kts 135°
2026-04-23 06:59 -6.93251 107.55521 8452 ft 257 kts 139°
2026-04-23 06:59 -6.94646 107.56660 8452 ft 259 kts 141°
2026-04-23 07:00 -6.96061 107.57794 8455 ft 260 kts 141°
2026-04-23 07:00 -6.97477 107.58928 8452 ft 261 kts 141°
2026-04-23 07:00 -6.98669 107.60266 8450 ft 256 kts 118°
2026-04-23 07:00 -6.99405 107.61895 8453 ft 255 kts 111°
2026-04-23 07:01 -7.00060 107.63559 8458 ft 256 kts 111°
2026-04-23 07:01 -7.00720 107.65231 8453 ft 257 kts 111°
2026-04-23 07:01 -7.01416 107.66898 8450 ft 258 kts 112°
2026-04-23 07:01 -7.02103 107.68566 8454 ft 256 kts 105°
2026-04-23 07:02 -7.02287 107.70308 8457 ft 253 kts 90°
2026-04-23 07:02 -7.02013 107.72046 8393 ft 253 kts 64°
2026-04-23 07:02 -7.00871 107.73359 8373 ft 253 kts 32°
2026-04-23 07:02 -6.99190 107.73884 7974 ft 248 kts
2026-04-23 07:03 -6.97613 107.73766 7482 ft 212 kts 354°
2026-04-23 07:03 -6.96307 107.73350 7000 ft 193 kts 322°
2026-04-23 07:03 -6.95450 107.72327 6528 ft 191 kts 306°
2026-04-23 07:03 -6.94765 107.71186 6065 ft 191 kts 298°
2026-04-23 07:04 -6.94221 107.69967 5579 ft 191 kts 292°
2026-04-23 07:04 -6.93768 107.68710 5111 ft 190 kts 290°
2026-04-23 07:04 -6.93351 107.67450 4678 ft 188 kts 289°
2026-04-23 07:04 -6.92965 107.66221 4225 ft 181 kts 289°
2026-04-23 07:05 -6.92584 107.65032 3748 ft 177 kts 290°
2026-04-23 07:05 -6.92210 107.63881 3434 ft 174 kts 290°
2026-04-23 07:05 -6.91830 107.62736 3353 ft 170 kts 292°
2026-04-23 07:05 -6.91461 107.61746 3188 ft 131 kts 291°
2026-04-23 07:06 -6.91198 107.60930 3037 ft 118 kts 292°
2026-04-23 07:06 -6.90946 107.60177 2795 ft 112 kts 291°
2026-04-23 07:06 -6.90672 107.59418 2647 ft 116 kts 294°
2026-04-23 07:06 -6.90429 107.58698 2460 ft 103 kts 293°
2026-04-23 07:07 -6.90194 107.58022 2416 ft 92 kts 289°
2026-04-23 07:07 -6.89970 107.57350 2408 ft 119 kts 294°
2026-04-23 07:07 -6.89709 107.56481 2568 ft 140 kts 284°
2026-04-23 07:07 -6.89465 107.55443 2917 ft 166 kts 285°
2026-04-23 07:08 -6.89141 107.54257 3426 ft 179 kts 289°
2026-04-23 07:08 -6.88801 107.53050 4066 ft 184 kts 284°
2026-04-23 07:08 -6.88458 107.51753 4423 ft 198 kts 289°
2026-04-23 07:08 -6.88046 107.50395 4868 ft 206 kts 285°
2026-04-23 07:09 -6.87856 107.48958 5340 ft 209 kts 276°
2026-04-23 07:09 -6.87757 107.47490 5816 ft 211 kts 274°
2026-04-23 07:09 -6.87679 107.46003 6302 ft 213 kts 274°
2026-04-23 07:09 -6.87352 107.44608 6727 ft 210 kts 303°
2026-04-23 07:10 -6.86215 107.43727 7137 ft 211 kts 343°
2026-04-23 07:10 -6.84772 107.43803 7577 ft 212 kts 22°
2026-04-23 07:10 -6.83696 107.44803 8002 ft 217 kts 61°
2026-04-23 07:10 -6.83450 107.46306 8275 ft 228 kts 98°
2026-04-23 07:11 -6.84138 107.47770 8365 ft 238 kts 127°
2026-04-23 07:11 -6.85272 107.48992 8400 ft 245 kts 137°
2026-04-23 07:11 -6.86589 107.50105 8429 ft 249 kts 142°
2026-04-23 07:12 -6.89614 107.51696 8438 ft 250 kts 179°
2026-04-23 07:12 -6.91317 107.51361 8440 ft 251 kts 199°
2026-04-23 07:12 -6.92854 107.50571 8445 ft 249 kts 222°
2026-04-23 07:12 -6.93743 107.49105 8446 ft 248 kts 257°
2026-04-23 07:13 -6.93665 107.47398 8447 ft 247 kts 290°
2026-04-23 07:13 -6.92652 107.46027 8455 ft 247 kts 323°
2026-04-23 07:13 -6.91189 107.45125 8447 ft 248 kts 332°
2026-04-23 07:13 -6.89639 107.44358 8446 ft 248 kts 336°
2026-04-23 07:14 -6.88012 107.43856 8437 ft 245 kts 357°
2026-04-23 07:14 -6.86314 107.44013 8436 ft 246 kts
2026-04-23 07:14 -6.84637 107.44380 8435 ft 245 kts 17°
2026-04-23 07:14 -6.83250 107.45340 8435 ft 248 kts 51°
2026-04-23 07:15 -6.82634 107.46949 8436 ft 251 kts 85°
2026-04-23 07:15 -6.83006 107.48650 8437 ft 253 kts 118°
2026-04-23 07:15 -6.84248 107.49885 8438 ft 254 kts 151°
2026-04-23 07:15 -6.85868 107.50596 8439 ft 255 kts 160°
2026-04-23 07:16 -6.87535 107.51141 8444 ft 255 kts 165°
2026-04-23 07:16 -6.89273 107.51339 8445 ft 252 kts 184°
2026-04-23 07:16 -6.91026 107.51149 8446 ft 254 kts 189°
2026-04-23 07:16 -6.92736 107.50747 8444 ft 250 kts 205°
2026-04-23 07:17 -6.94027 107.49609 8445 ft 250 kts 239°
2026-04-23 07:17 -6.94464 107.47943 8446 ft 249 kts 273°
2026-04-23 07:17 -6.93902 107.46317 8450 ft 249 kts 307°
2026-04-23 07:17 -6.92549 107.45268 8449 ft 247 kts 335°
2026-04-23 07:18 -6.90968 107.44635 8448 ft 248 kts 341°
2026-04-23 07:18 -6.89293 107.44117 8444 ft 249 kts 345°
2026-04-23 07:18 -6.87613 107.43965 8442 ft 246 kts
2026-04-23 07:18 -6.85907 107.44136 8440 ft 248 kts
2026-04-23 07:19 -6.84185 107.44300 8439 ft 249 kts
2026-04-23 07:19 -6.82567 107.44447 8439 ft 250 kts
2026-04-23 07:19 -6.80832 107.44607 8438 ft 248 kts
2026-04-23 07:19 -6.79259 107.45241 8430 ft 248 kts 39°
2026-04-23 07:20 -6.78310 107.46677 8428 ft 251 kts 73°
2026-04-23 07:20 -6.78311 107.48416 8431 ft 253 kts 106°
2026-04-23 07:20 -6.79253 107.49891 8433 ft 253 kts 136°
2026-04-23 07:20 -6.80582 107.51052 8430 ft 254 kts 139°
2026-04-23 07:21 -6.81881 107.52298 8256 ft 260 kts 131°
2026-04-23 07:21 -6.82980 107.53692 8526 ft 245 kts 121°
2026-04-23 07:21 -6.84076 107.54871 8181 ft 221 kts 148°
2026-04-23 07:21 -6.85428 107.55445 7716 ft 199 kts 159°
2026-04-23 07:22 -6.86668 107.55903 7446 ft 182 kts 160°
2026-04-23 07:22 -6.87872 107.56305 7132 ft 182 kts 162°
2026-04-23 07:22 -6.89121 107.56700 6500 ft 192 kts 162°
2026-04-23 07:22 -6.90361 107.57086 6092 ft 185 kts 163°
2026-04-23 07:23 -6.91588 107.57445 5760 ft 180 kts 164°
2026-04-23 07:23 -6.92814 107.57790 5310 ft 180 kts 161°
2026-04-23 07:23 -6.93848 107.58428 5176 ft 174 kts 129°
2026-04-23 07:23 -6.94408 107.59493 4974 ft 172 kts 110°
2026-04-23 07:24 -6.94829 107.60563 4886 ft 155 kts 109°
2026-04-23 07:24 -6.95189 107.61532 4716 ft 140 kts 107°
2026-04-23 07:24 -6.95411 107.62469 4502 ft 136 kts 93°
2026-04-23 07:24 -6.95069 107.63252 4374 ft 120 kts 39°
2026-04-23 07:25 -6.94319 107.63541 4169 ft 119 kts
2026-04-23 07:25 -6.93528 107.63299 4072 ft 118 kts 327°
2026-04-23 07:25 -6.92882 107.62849 3984 ft 110 kts 326°
2026-04-23 07:25 -6.92274 107.62400 3830 ft 110 kts 325°
2026-04-23 07:26 -6.91724 107.61869 3665 ft 110 kts 310°
2026-04-23 07:26 -6.91295 107.61238 3371 ft 109 kts 303°
2026-04-23 07:26 -6.91047 107.60476 3054 ft 117 kts 287°
2026-04-23 07:26 -6.90782 107.59706 2743 ft 118 kts 297°
2026-04-23 07:27 -6.90520 107.58958 2542 ft 110 kts 292°
2026-04-23 07:27 -6.90279 107.58252 2429 ft 102 kts 292°
2026-04-23 07:27 -6.90070 107.57666 2415 ft 77 kts 288°
2026-04-23 07:27 -6.90004 107.57483 2407 ft 7 kts 325°
2026-04-23 07:28 -6.90002 107.57467 2410 ft 6 kts 240°
2026-04-23 07:28 -6.90011 107.57467 2409 ft 0 kts 144°
2026-04-23 07:28 -6.90025 107.57494 2410 ft 1 kts 140°
2026-04-23 07:28 -6.90067 107.57472 2408 ft 15 kts 231°
2026-04-23 07:29 -6.90115 107.57420 2414 ft 0 kts 206°
2026-04-23 07:29 -6.90174 107.57455 2410 ft 33 kts 120°
2026-04-23 07:29 -6.90276 107.57749 2411 ft 46 kts 71°
2026-04-23 07:29 -6.90277 107.57914 2410 ft 13 kts 98°
2026-04-23 07:30 -6.90284 107.57953 2412 ft 2 kts 103°
2026-04-23 07:30 -6.90293 107.57960 2412 ft 2 kts 163°
2026-04-23 07:30 -6.90299 107.57958 2419 ft 0 kts 194°